CW5920 Weather Reports


Display with metric or nautical units.
time (UTC)temp
F
wind
direction
speed
MPH
gust
MPH
rain 1hr
in
rain 24hr
in
rain mn
in
humidity
%
barometer
mb
20260902092016 80 0.0 0.0 0.00 0.00 0.00 75 1015.2
20260902091016 80 0.0 0.0 0.00 0.00 0.00 74 1015.3
20260902090016 80 0.0 0.0 0.00 0.00 0.00 74 1015.3
20260902085017 80 0.0 0.0 0.00 0.00 0.00 74 1015.3
20260902084017 80 0.0 1.0 0.00 0.00 0.00 73 1015.3
20260902083017 81 0.0 0.0 0.00 0.00 0.00 73 1015.4
20260902082015 81 0.0 2.0 0.00 0.00 0.00 73 1015.5
20260902081017 81 0.0 2.0 0.00 0.00 0.00 72 1015.4
20260902080015 81 0.0 2.0 0.00 0.00 0.00 71 1015.4
20260902075017 82 0.0 2.0 0.00 0.00 0.00 71 1015.3
20260902074015 82 158 1.0 3.0 0.00 0.00 0.00 70 1015.5
20260902073017 82 158 1.0 4.0 0.00 0.00 0.00 69 1015.5
20260902072037 83 0.0 2.0 0.00 0.00 0.00 69 1015.7
20260902071017 83 158 1.0 7.0 0.00 0.00 0.00 68 1015.7
20260902070017 83 135 1.0 4.0 0.00 0.00 0.00 68 1015.6
20260902065017 83 135 3.0 5.0 0.00 0.00 0.00 68 1015.5
20260902064057 83 158 4.0 8.0 0.00 0.00 0.00 67 1015.6
20260902063017 83 135 4.0 12.0 0.00 0.00 0.00 67 1015.6
20260902062018 83 135 5.0 10.0 0.00 0.00 0.00 67 1015.5
20260902061017 83 113 7.0 10.0 0.00 0.00 0.00 67 1015.5
20260902060017 84 113 5.0 10.0 0.00 0.00 0.00 66 1015.4
20260902055017 84 113 6.0 12.0 0.00 0.00 0.00 66 1015.3
20260902054037 84 113 5.0 10.0 0.00 0.00 0.00 65 1015.2
20260902053017 84 135 5.0 10.0 0.00 0.00 0.00 65 1015.1
20260902052017 85 113 4.0 9.0 0.00 0.00 0.00 64 1015.1
20260902051017 85 113 6.0 12.0 0.00 0.00 0.00 63 1015.1
20260902050017 85 113 7.0 13.0 0.00 0.00 0.00 62 1015.1
20260902045017 86 113 9.0 14.0 0.00 0.00 0.00 61 1015.1
20260902044017 86 113 8.0 14.0 0.00 0.00 0.00 60 1015.0
20260902043017 86 113 5.0 11.0 0.00 0.00 0.00 59 1015.0
20260902042017 86 90 8.0 13.0 0.00 0.00 0.00 60 1014.9
20260902041017 86 0.0 0.0 0.00 0.00 0.00 59 1014.6
20260902040037 86 0.0 2.0 0.00 0.00 0.00 59 1014.5
20260902035017 87 0.0 0.0 0.00 0.00 0.00 58 1014.7
20260902034017 87 0.0 1.0 0.00 0.00 0.00 57 1014.7
20260902033017 87 113 1.0 3.0 0.00 0.00 0.00 57 1014.6
20260902032017 87 113 1.0 3.0 0.00 0.00 0.00 56 1014.6
20260902031017 88 113 1.0 3.0 0.00 0.00 0.00 56 1014.4
20260902030037 88 113 1.0 4.0 0.00 0.00 0.00 55 1014.3
20260902025017 88 0.0 3.0 0.00 0.00 0.00 55 1014.1
20260902024017 88 0.0 2.0 0.00 0.00 0.00 54 1013.8
20260902023017 89 0.0 2.0 0.00 0.00 0.00 54 1013.7
20260902022017 89 0.0 1.0 0.00 0.00 0.00 53 1013.6
20260902021017 90 0.0 2.0 0.00 0.00 0.00 52 1013.4
20260902020017 90 0.0 3.0 0.00 0.00 0.00 51 1013.4
20260902015017 91 90 1.0 6.0 0.00 0.00 0.00 51 1013.3
20260902014017 91 0.0 1.0 0.00 0.00 0.00 49 1013.0
20260902013017 92 0.0 0.0 0.00 0.00 0.00 48 1013.0
20260902012017 92 0.0 1.0 0.00 0.00 0.00 47 1013.0
20260902011017 93 0.0 2.0 0.00 0.00 0.00 47 1012.8
20260902010017 93 90 2.0 4.0 0.00 0.00 0.00 46 1012.8
20260902005017 94 68 2.0 5.0 0.00 0.00 0.00 45 1012.8
20260902004017 94 90 4.0 7.0 0.00 0.00 0.00 45 1012.7
20260902003017 95 90 5.0 10.0 0.00 0.00 0.00 44 1012.9
20260902002017 95 90 7.0 12.0 0.00 0.00 0.00 43 1012.8
20260902001017 96 90 6.0 9.0 0.00 0.00 0.00 43 1012.9
20260902000017 96 113 8.0 13.0 0.00 0.00 0.00 42 1012.9
20260901235017 96 113 5.0 9.0 0.00 0.00 0.00 42 1012.9
20260901234037 96 113 3.0 7.0 0.00 0.00 0.00 42 1013.1
20260901233017 97 113 2.0 7.0 0.00 0.00 0.00 41 1013.1
20260901232017 97 135 4.0 7.0 0.00 0.00 0.00 41 1013.2
20260901231037 97 90 6.0 9.0 0.00 0.00 0.00 40 1013.3
20260901230017 98 113 7.0 10.0 0.00 0.00 0.00 40 1013.3
20260901225017 98 113 7.0 13.0 0.00 0.00 0.00 39 1013.2
20260901224017 98 113 8.0 12.0 0.00 0.00 0.00 40 1013.2
20260901223017 98 113 8.0 13.0 0.00 0.00 0.00 41 1013.2
20260901222037 97 68 8.0 15.0 0.00 0.00 0.00 41 1013.2
20260901221017 96 90 4.0 8.0 0.00 0.00 0.00 42 1013.2
20260901220017 97 90 6.0 11.0 0.00 0.00 0.00 41 1013.3
20260901215037 98 90 8.0 13.0 0.00 0.00 0.00 39 1013.4
20260901214017 99 135 4.0 9.0 0.00 0.00 0.00 39 1013.4
20260901213017 98 68 6.0 12.0 0.00 0.00 0.00 40 1013.6
20260901212017 98 135 5.0 9.0 0.00 0.00 0.00 40 1013.7
20260901211017 98 113 5.0 11.0 0.00 0.00 0.00 39 1013.7
20260901210017 98 90 5.0 10.0 0.00 0.00 0.00 40 1014.0
20260901205017 99 113 9.0 13.0 0.00 0.00 0.00 39 1014.1
20260901204017 99 68 5.0 10.0 0.00 0.00 0.00 39 1014.2
20260901203017 99 90 4.0 10.0 0.00 0.00 0.00 40 1014.2
20260901202017 99 68 7.0 13.0 0.00 0.00 0.00 40 1014.3
20260901201057 99 68 7.0 13.0 0.00 0.00 0.00 40 1014.4
20260901200017 98 90 2.0 7.0 0.00 0.00 0.00 39 1014.4
20260901195017 98 113 8.0 14.0 0.00 0.00 0.00 41 1014.5
20260901194017 96 68 2.0 7.0 0.00 0.00 0.00 44 1014.7
20260901193017 97 90 5.0 12.0 0.00 0.00 0.00 43 1014.8
20260901192017 97 113 1.0 6.0 0.00 0.00 0.00 41 1014.9
20260901191017 98 135 5.0 10.0 0.00 0.00 0.00 40 1015.1
20260901190017 98 90 4.0 8.0 0.00 0.00 0.00 40 1015.2
20260901185017 98 45 5.0 13.0 0.00 0.00 0.00 41 1015.3
20260901184017 97 68 2.0 7.0 0.00 0.00 0.00 43 1015.6
20260901183017 97 90 8.0 14.0 0.00 0.00 0.00 43 1015.9
20260901182017 98 113 3.0 9.0 0.00 0.00 0.00 40 1016.0
20260901181017 97 135 3.0 10.0 0.00 0.00 0.00 44 1016.0
20260901180017 96 0.0 0.0 0.00 0.00 0.00 44 1016.1
20260901175017 97 68 6.0 10.0 0.00 0.00 0.00 44 1016.3
20260901174037 98 158 2.0 9.0 0.00 0.00 0.00 43 1016.5
20260901173017 97 68 3.0 8.0 0.00 0.00 0.00 43 1016.6
20260901172017 97 90 4.0 10.0 0.00 0.00 0.00 44 1016.7
20260901171037 97 158 3.0 9.0 0.00 0.00 0.00 45 1016.8
20260901170017 96 113 6.0 12.0 0.00 0.00 0.00 45 1016.9
20260901165017 96 90 5.0 10.0 0.00 0.00 0.00 45 1017.1
20260901164017 96 135 4.0 12.0 0.00 0.00 0.00 46 1017.3
20260901163017 95 135 4.0 12.0 0.00 0.00 0.00 47 1017.2
20260901162017 95 113 4.0 12.0 0.00 0.00 0.00 48 1017.2
20260901161017 95 0.0 4.0 0.00 0.00 0.00 49 1017.2
20260901160017 94 158 3.0 7.0 0.00 0.00 0.00 49 1017.1
20260901155017 94 180 2.0 8.0 0.00 0.00 0.00 50 1017.2
20260901154037 93 135 3.0 9.0 0.00 0.00 0.00 51 1017.2
20260901153037 93 158 3.0 10.0 0.00 0.00 0.00 52 1017.2
20260901152037 92 158 1.0 5.0 0.00 0.00 0.00 53 1017.0
20260901151017 91 135 2.0 8.0 0.00 0.00 0.00 54 1017.1
20260901150017 90 158 3.0 9.0 0.00 0.00 0.00 55 1017.1
20260901145017 90 158 1.0 7.0 0.00 0.00 0.00 57 1017.2
20260901144017 89 0.0 1.0 0.00 0.00 0.00 58 1017.3
20260901143017 88 0.0 0.0 0.00 0.00 0.00 60 1017.3
20260901142017 87 0.0 4.0 0.00 0.00 0.00 62 1017.3
20260901141017 86 135 1.0 4.0 0.00 0.00 0.00 65 1017.4
20260901140017 85 113 1.0 7.0 0.00 0.00 0.00 68 1017.3
20260901135017 84 113 1.0 3.0 0.00 0.00 0.00 70 1017.3
20260901134037 83 113 3.0 4.0 0.00 0.00 0.00 71 1017.4
20260901133017 82 135 3.0 7.0 0.00 0.00 0.00 72 1017.3
20260901132037 81 135 2.0 4.0 0.00 0.00 0.00 73 1017.1
20260901131017 80 113 1.0 2.0 0.00 0.00 0.00 75 1017.1
20260901130017 79 158 1.0 4.0 0.00 0.00 0.00 76 1016.9
20260901125037 79 158 1.0 4.0 0.00 0.00 0.00 76 1016.9
20260901124036 79 0.0 0.0 0.00 0.00 0.00 76 1016.9
20260901123017 78 0.0 0.0 0.00 0.00 0.00 75 1016.6
20260901122017 79 0.0 0.0 0.00 0.00 0.00 75 1016.4
20260901121016 79 0.0 0.0 0.00 0.00 0.00 74 1016.4
20260901120017 79 0.0 0.0 0.00 0.00 0.00 74 1016.4
20260901115017 79 0.0 0.0 0.00 0.00 0.00 73 1016.2
20260901114037 80 0.0 0.0 0.00 0.00 0.00 73 1016.3
20260901113017 80 0.0 0.0 0.00 0.00 0.00 73 1016.2
20260901112017 80 0.0 2.0 0.00 0.00 0.00 72 1016.1
20260901111016 80 0.0 0.0 0.00 0.00 0.00 72 1016.1
20260901110016 80 0.0 2.0 0.00 0.00 0.00 71 1016.0
20260901105016 81 158 1.0 6.0 0.00 0.00 0.00 71 1016.0
20260901104017 81 0.0 5.0 0.00 0.00 0.00 70 1016.0
20260901103016 81 158 1.0 6.0 0.00 0.00 0.00 70 1016.0
20260901102017 81 158 1.0 6.0 0.00 0.00 0.00 70 1016.0
20260901101036 81 158 1.0 7.0 0.00 0.00 0.00 70 1015.9
20260901100016 81 158 1.0 6.0 0.00 0.00 0.00 69 1015.9
20260901095017 82 158 1.0 5.0 0.00 0.00 0.00 69 1016.1
20260901094036 82 158 1.0 4.0 0.00 0.00 0.00 69 1016.2
20260901093017 82 158 1.0 6.0 0.00 0.00 0.00 68 1016.2